Weather History for KAAT - December, 2013

Change the Weather History Date:

Wednesday, December 25, 2013

  Actual Average Record
Temperature  
Mean Temperature 32 °F 29 °F  
Max Temperature 53 °F 40 °F 60 °F (1960)
Min Temperature 10 °F 18 °F -12 °F (1948)
Degree Days  
Heating Degree Days 33 36  
Month to date heating degree days 1065 883  
Since 1 July heating degree days 2810 2693  
Cooling Degree Days 0 0  
Month to date cooling degree days 0 0  
Year to date cooling degree days 280 156  
Moisture  
Dew Point 15 °F    
Average Humidity 61    
Maximum Humidity 92    
Minimum Humidity 29    
Precipitation  
Precipitation 0.00 in 0.06 in 0.95 in (1931)
Month to date precipitation 0.17 1.39  
Year to date precipitation 6.29 13.85  
Sea Level Pressure  
Sea Level Pressure 30.51 in    
Wind  
Wind Speed 2 mph (NNE)    
Max Wind Speed 12 mph    
Max Gust Speed 13 mph    
Visibility 6 miles    
Events Fog    
T = Trace of Precipitation, MM = Missing Value Source: NWS Daily Summary

Daily Weather History Graph

Daily Weather History Graph

Search for Another Location

Airport or City:

Trip Planner

Search our weather history database for the weather conditions in past years. The results will help you decide how hot, cold, wet, or windy it might be!

Date:

Astronomy

Dec. 25, 2013 Rise Set
Actual Time 7:27 AM PST 4:38 PM PST
Civil Twilight 6:55 AM PST 5:09 PM PST
Nautical Twilight 6:20 AM PST 5:44 PM PST
Astronomical Twilight 5:47 AM PST 6:18 PM PST
Moon No Moon Rise 11:48 AM PST (12/25)
Length of Visible Light 10h 13m
Length of Day
9h 10m
Waning Gibbous, 47% of the Moon is Illuminated
Dec 25
Waning Gibbous
Jan 1
New
Jan 7
First Quarter
Jan 15
Full
Jan 23
Last Quarter

Hourly Weather History & Observations

Time (PST) Temp. Windchill Dew Point Humidity Pressure Visibility Wind Dir Wind Speed Gust Speed Precip Events Conditions
12:04 AM 16.0 °F - 12.9 °F 88% 30.48 in 0.8 mi Calm Calm - N/A   Clear
12:27 AM 17.1 °F - 14.0 °F 88% 30.48 in 0.2 mi Calm Calm - N/A Fog Light Freezing Fog
12:55 AM 17.1 °F 8.7 °F 14.0 °F 88% 30.56 in 0.2 mi NW 5.8 mph - N/A Fog Light Freezing Fog
1:55 AM 19.0 °F 13.9 °F 17.1 °F 92% 30.55 in 1.2 mi NNE 3.5 mph - N/A   Overcast
2:04 AM 19.9 °F 14.9 °F 17.1 °F 89% 30.48 in 0.2 mi North 3.5 mph - N/A Fog Light Freezing Fog
2:29 AM 17.1 °F - 14.0 °F 88% 30.48 in 0.2 mi Calm Calm - N/A Fog Light Freezing Fog
2:45 AM 15.1 °F 9.4 °F 10.9 °F 84% 30.48 in 2.0 mi SE 3.5 mph - N/A   Mist
2:53 AM 15.8 °F - 10.4 °F 79% 30.48 in 6.0 mi Calm Calm - N/A   Mist
2:55 AM 15.1 °F 9.4 °F 10.9 °F 84% 30.55 in 5.0 mi SSE 3.5 mph - N/A   Mostly Cloudy
3:05 AM 15.1 °F 9.4 °F 12.0 °F 88% 30.48 in 1.8 mi South 3.5 mph - N/A   Overcast
3:15 AM 15.1 °F - 12.0 °F 88% 30.48 in 0.5 mi Calm Calm - N/A Fog Light Freezing Fog
3:55 AM 15.1 °F - 10.9 °F 84% 30.55 in 1.0 mi Calm Calm - N/A   Mostly Cloudy
4:13 AM 14.0 °F - 10.0 °F 84% 30.48 in 0.5 mi Calm Calm - N/A Fog Light Freezing Fog
4:22 AM 14.0 °F 6.5 °F 10.0 °F 84% 30.48 in 2.5 mi North 4.6 mph - N/A   Mist
4:29 AM 14.0 °F 8.2 °F 10.0 °F 84% 30.47 in 6.0 mi NNW 3.5 mph - N/A   Mist
4:55 AM 12.0 °F - 7.0 °F 80% 30.58 in 6.0 mi Calm Calm - N/A   Haze
5:26 AM 10.9 °F - 7.0 °F 84% 30.47 in 6.0 mi Calm Calm - N/A   Scattered Clouds
5:32 AM 10.9 °F - 6.1 °F 81% 30.48 in 1.8 mi Calm Calm - N/A   Haze
5:41 AM 12.9 °F - 7.0 °F 77% 30.47 in 3.0 mi Calm Calm - N/A   Haze
5:55 AM 10.9 °F 4.7 °F 7.0 °F 84% 30.60 in 9.0 mi NNE 3.5 mph - N/A   Partly Cloudy
6:55 AM 10.0 °F - 6.1 °F 84% 30.61 in 10.0 mi Calm Calm - N/A   Clear
7:55 AM 12.0 °F 5.9 °F 8.1 °F 84% 30.61 in 10.0 mi NNW 3.5 mph - N/A   Clear
8:55 AM 18.0 °F 12.7 °F 15.1 °F 88% 30.60 in 10.0 mi NW 3.5 mph - N/A   Clear
9:55 AM 24.1 °F - 21.0 °F 88% 30.61 in 10.0 mi Calm Calm - N/A   Clear
10:55 AM 30.0 °F - 26.1 °F 85% 30.57 in 10.0 mi Calm Calm - N/A   Clear
11:55 AM 37.9 °F - 28.0 °F 68% 30.54 in 10.0 mi Calm Calm - N/A   Clear
12:55 PM 44.1 °F - 28.0 °F 53% 30.49 in 10.0 mi Calm Calm - N/A   Clear
1:55 PM 50.0 °F - 26.1 °F 39% 30.43 in 10.0 mi Calm Calm - N/A   Clear
2:55 PM 53.1 °F - 23.0 °F 31% 30.43 in 10.0 mi NNE 5.8 mph - N/A   Clear
3:55 PM 52.0 °F - 23.0 °F 32% 30.43 in 10.0 mi Calm Calm - N/A   Clear
4:55 PM 42.1 °F 36.1 °F 26.1 °F 53% 30.46 in 10.0 mi East 10.4 mph - N/A   Clear
5:55 PM 35.1 °F 28.6 °F 25.0 °F 67% 30.49 in 10.0 mi ENE 8.1 mph - N/A   Clear
6:55 PM 33.1 °F 30.0 °F 21.9 °F 64% 30.50 in 10.0 mi NE 3.5 mph - N/A   Clear
7:55 PM 26.1 °F - 19.9 °F 78% 30.54 in 7.0 mi Calm Calm - N/A   Clear
8:55 PM 25.0 °F - 21.0 °F 85% 30.53 in 10.0 mi Calm Calm - N/A   Clear
9:55 PM 19.0 °F - 16.0 °F 88% 30.55 in 8.0 mi Calm Calm - N/A   Clear
10:55 PM 19.0 °F - 17.1 °F 92% 30.53 in 5.0 mi Calm Calm - N/A   Clear
11:55 PM 16.0 °F 10.4 °F 12.9 °F 88% 30.51 in 5.0 mi North 3.5 mph - N/A   Clear